Back to catalog

STARLINK-37687

AliveCommunicationsVLEO
NORAD 69368·PAYLOAD·🇺🇸 United States

Launched Jun 4, 2026 from Cape Canaveral Space Force Station

Loading…

Next Passes (next 24 hours)

TLE

FreshSource: CelesTrak SupGP

Epoch: Sep 15, 2026, 03:56 UTC

1 69368C 26123R   26258.16437500  .00012204  00000+0  36058-3 0  2586
2 69368  53.1578 166.5629 0001339  81.6517 219.9782 15.34382503    15

Track STARLINK-37687 in real time with AllMySat

Download on the App Store